Weather History for Fredericksburg, TX

Change the Weather History Date:

Wednesday, May 28, 2014

  Actual Average (KSAT) Record (KSAT)
Temperature  
Mean Temperature 73 °F 80 °F  
Max Temperature 80 °F 90 °F 103 °F (1927)
Min Temperature 66 °F 70 °F 55 °F (1976)
Degree Days  
Heating Degree Days 0 0  
Month to date heating degree days 0  
Since 1 July heating degree days 1494  
Cooling Degree Days 8 15  
Month to date cooling degree days 325  
Year to date cooling degree days 584  
Growing Degree Days 23 (Base 50)    
Moisture  
Dew Point 63 °F    
Average Humidity 73    
Maximum Humidity 96    
Minimum Humidity 51    
Precipitation  
Precipitation 0.00 in 0.15 in 1.31 in (1940)
Month to date precipitation 3.55  
Year to date precipitation 11.51  
Snow  
Snow 0.00 in - - ()
Month to date snowfall  
Since 1 July snowfall  
Snow Depth -    
Sea Level Pressure  
Sea Level Pressure 29.95 in    
Wind  
Wind Speed 5 mph (North)    
Max Wind Speed 18 mph    
Max Gust Speed 26 mph    
Visibility 8 miles    
Events      
T = Trace of Precipitation, MM = Missing Value Source: NWS Daily Summary

Daily Weather History Graph

Daily Weather History Graph

Search for Another Location

Airport:

Trip Planner

Search our weather history database for the weather conditions in past years. The results will help you decide how hot, cold, wet, or windy it might be!

Date:

Astronomy

May. 28, 2014 Rise Set
Actual Time 6:35 AM CDT 8:30 PM CDT
Civil Twilight 6:08 AM CDT 8:57 PM CDT
Nautical Twilight 5:36 AM CDT 9:30 PM CDT
Astronomical Twilight 5:01 AM CDT 10:04 PM CDT
Moon 6:38 AM CDT (5/28) 8:34 PM CDT (5/28)
Length of Visible Light 14h 48m
Length of Day
13h 55m
Waning Crescent, 0% of the Moon is Illuminated
May 28
Waning Crescent
May 28
New
Jun 5
First Quarter
Jun 12
Full
Jun 19
Last Quarter

Hourly Weather History & Observations

Time (CDT) Temp. Heat Index Dew Point Humidity Pressure Visibility Wind Dir Wind Speed Gust Speed Precip Events Conditions
12:15 AM 70.2 °F - 69.1 °F 96% 29.96 in 2.0 mi Calm Calm - N/A   Mist
12:35 AM 70.3 °F - 69.1 °F 96% 29.95 in 4.0 mi Calm Calm - N/A   Mist
12:55 AM 70.7 °F - 69.3 °F 95% 29.95 in 4.0 mi Calm Calm - N/A   Mist
1:15 AM 70.7 °F - 69.3 °F 95% 29.94 in 5.0 mi Calm Calm - N/A   Mist
1:35 AM 70.9 °F - 69.3 °F 95% 29.94 in 5.0 mi Calm Calm - N/A   Mist
1:55 AM 71.1 °F - 69.3 °F 94% 29.94 in 5.0 mi Calm Calm - N/A   Mist
2:15 AM 71.1 °F - 68.9 °F 93% 29.94 in 7.0 mi SW 4.6 mph - N/A   Unknown
2:35 AM 70.7 °F - 68.7 °F 93% 29.94 in 7.0 mi WSW 3.5 mph - N/A   Unknown
2:55 AM 70.3 °F - 68.2 °F 93% 29.93 in 7.0 mi West 3.5 mph - N/A   Unknown
3:15 AM 70.0 °F - 68.0 °F 93% 29.93 in 7.0 mi Calm Calm - N/A   Unknown
3:35 AM 69.4 °F - 68.0 °F 95% 29.93 in 5.0 mi Calm Calm - N/A   Mist
3:55 AM 68.0 °F - 66.6 °F 95% 29.93 in 4.0 mi Calm Calm - N/A   Mist
4:15 AM 68.5 °F - 67.1 °F 95% 29.93 in 5.0 mi NW 4.6 mph - N/A   Mist
4:35 AM 68.0 °F - 66.4 °F 95% 29.93 in 4.0 mi NW 4.6 mph - N/A   Mist
4:55 AM 68.0 °F - 66.6 °F 95% 29.93 in 4.0 mi WNW 3.5 mph - N/A   Mist
5:15 AM 67.6 °F - 66.4 °F 96% 29.93 in 5.0 mi WNW 4.6 mph - N/A   Mist
5:35 AM 67.5 °F - 66.0 °F 95% 29.93 in 5.0 mi NW 5.8 mph - N/A   Mist
5:55 AM 67.6 °F - 65.8 °F 94% 29.93 in 7.0 mi NNW 5.8 mph - N/A   Unknown
6:15 AM 67.1 °F - 65.3 °F 94% 29.94 in 7.0 mi NNW 4.6 mph - N/A   Unknown
6:35 AM 67.1 °F - 64.9 °F 93% 29.94 in 7.0 mi NNW 6.9 mph - N/A   Unknown
6:55 AM 66.6 °F - 64.8 °F 94% 29.94 in 5.0 mi NNW 6.9 mph - N/A   Mist
7:15 AM 66.9 °F - 64.8 °F 93% 29.95 in 7.0 mi NNW 8.1 mph - N/A   Unknown
7:55 AM 67.5 °F - 65.3 °F 93% 29.96 in 7.0 mi NNW 6.9 mph - N/A   Unknown
8:15 AM 68.5 °F - 65.3 °F 89% 29.96 in 10.0 mi NNW 6.9 mph - N/A   Unknown
8:55 AM 70.7 °F - 63.0 °F 76% 29.97 in 10.0 mi NNW 9.2 mph - N/A   Unknown
9:15 AM 71.6 °F - 62.6 °F 73% 29.97 in 10.0 mi North 16.1 mph - N/A   Unknown
9:35 AM 72.3 °F - 61.3 °F 68% 29.97 in 10.0 mi North 11.5 mph - N/A   Unknown
9:55 AM 73.0 °F - 60.1 °F 64% 29.97 in 10.0 mi NNW 16.1 mph - N/A   Unknown
10:15 AM 73.6 °F - 59.5 °F 61% 29.97 in 10.0 mi North 16.1 mph 21.9 mph N/A   Unknown
10:35 AM 73.9 °F - 59.0 °F 59% 29.97 in 10.0 mi North 18.4 mph 26.5 mph N/A   Unknown
10:55 AM 74.7 °F - 59.9 °F 60% 29.97 in 10.0 mi North 13.8 mph - N/A   Unknown
11:15 AM 75.4 °F - 60.6 °F 60% 29.97 in 10.0 mi North 18.4 mph 23.0 mph N/A   Unknown
11:55 AM 76.1 °F - 59.7 °F 57% 29.98 in 10.0 mi North 15.0 mph 21.9 mph N/A   Unknown
12:15 PM 77.4 °F - 59.5 °F 54% 29.98 in 10.0 mi North 17.3 mph 23.0 mph N/A   Unknown
12:35 PM 77.2 °F - 59.7 °F 55% 29.98 in 10.0 mi North 12.7 mph 20.7 mph N/A   Unknown
12:55 PM 78.1 °F - 60.4 °F 54% 29.98 in 10.0 mi North 16.1 mph 19.6 mph N/A   Unknown
1:15 PM 77.4 °F - 60.4 °F 56% 29.97 in 10.0 mi NNE 10.4 mph 19.6 mph N/A   Unknown
1:35 PM 77.4 °F - 60.4 °F 56% 29.97 in 10.0 mi NE 11.5 mph 18.4 mph N/A   Unknown
1:55 PM 78.6 °F - 60.8 °F 54% 29.97 in 10.0 mi NNE 10.4 mph 17.3 mph N/A   Unknown
2:15 PM 79.2 °F - 60.8 °F 53% 29.96 in 10.0 mi NNE 9.2 mph 16.1 mph N/A   Unknown
2:35 PM 78.3 °F - 60.4 °F 54% 29.96 in 10.0 mi NNE 13.8 mph 18.4 mph N/A   Unknown
2:55 PM 79.3 °F - 60.6 °F 53% 29.95 in 10.0 mi North 10.4 mph - N/A   Unknown
3:15 PM 80.1 °F 81.0 °F 60.3 °F 51% 29.95 in 10.0 mi NNE 16.1 mph 21.9 mph N/A   Unknown
3:35 PM 80.4 °F 81.4 °F 61.2 °F 52% 29.94 in 10.0 mi North 9.2 mph 18.4 mph N/A   Unknown
4:15 PM 79.2 °F - 60.6 °F 53% 29.93 in 5.0 mi North 11.5 mph 17.3 mph N/A   Haze
4:35 PM 79.9 °F - 60.8 °F 52% 29.93 in 10.0 mi NNE 12.7 mph 20.7 mph N/A   Unknown
4:55 PM 79.0 °F - 60.1 °F 52% 29.93 in 10.0 mi NE 13.8 mph 18.4 mph N/A   Unknown
5:15 PM 80.1 °F 81.0 °F 60.4 °F 51% 29.92 in 10.0 mi NE 13.8 mph 17.3 mph N/A   Unknown
5:35 PM 79.7 °F - 59.9 °F 51% 29.92 in 10.0 mi NE 11.5 mph 18.4 mph N/A   Unknown
5:55 PM 79.2 °F - 59.4 °F 51% 29.91 in 10.0 mi North 11.5 mph - N/A   Unknown
6:15 PM 79.2 °F - 59.4 °F 51% 29.91 in 10.0 mi NNE 11.5 mph 19.6 mph N/A   Unknown
6:35 PM 78.3 °F - 59.2 °F 52% 29.92 in 10.0 mi NNE 9.2 mph 17.3 mph N/A   Unknown
6:55 PM 77.5 °F - 59.9 °F 54% 29.92 in 10.0 mi NE 10.4 mph - N/A   Unknown
7:15 PM 77.5 °F - 59.5 °F 54% 29.92 in 10.0 mi NE 8.1 mph - N/A   Unknown
7:35 PM 77.0 °F - 59.9 °F 55% 29.93 in 10.0 mi NE 5.8 mph - N/A   Unknown
7:55 PM 76.1 °F - 59.9 °F 57% 29.93 in 10.0 mi NE 6.9 mph - N/A   Unknown
8:15 PM 74.7 °F - 60.1 °F 60% 29.94 in 10.0 mi ENE 4.6 mph - N/A   Unknown
8:35 PM 73.8 °F - 60.1 °F 62% 29.94 in 10.0 mi NNE 3.5 mph - N/A   Unknown
8:55 PM 72.0 °F - 60.4 °F 67% 29.94 in 10.0 mi NE 3.5 mph - N/A   Unknown
9:35 PM 70.7 °F - 61.3 °F 72% 29.94 in 10.0 mi Calm Calm - N/A   Unknown
9:55 PM 70.0 °F - 61.5 °F 74% 29.94 in 10.0 mi Calm Calm - N/A   Unknown
10:15 PM 68.7 °F - 63.0 °F 82% 29.95 in 10.0 mi Calm Calm - N/A   Unknown
10:35 PM 67.5 °F - 62.8 °F 85% 29.95 in 10.0 mi Calm Calm - N/A   Unknown
10:55 PM 68.2 °F - 61.9 °F 80% 29.96 in 10.0 mi Calm Calm - N/A   Unknown
11:15 PM 67.5 °F - 61.9 °F 82% 29.96 in 10.0 mi Calm Calm - N/A   Unknown
11:55 PM 66.2 °F - 61.9 °F 86% 29.95 in 10.0 mi Calm Calm - N/A   Unknown